    Orbital elements:
    2009 JM2                                                 Earth MOID = 0.1038 AU
    Epoch 2009 June 18.0 TT = JDT 2455000.5                 MPC
    M  19.17133              (2000.0)            P               Q
    n   0.26887421     Peri.  117.18016     -0.95997259     +0.06546608
    a   2.3774056      Node    67.64966     -0.19520302     -0.85365563
    e   0.6028677      Incl.   17.12496     +0.20086913     -0.51670713
    P   3.67           H   18.9           G   0.15           U   7
    Residuals in seconds of arc
    090512 703  0.1-  0.2+    090512 114 (1.2-  4.9+)   090513 673  0.5+  0.2+
    090512 703  0.1+  0.0     090512 B15  0.3-  0.2-    090513 673  0.7+  0.2+
    090512 703  0.2-  0.1-    090512 B15  0.2-  0.1-    090513 673  0.3-  0.1+
    090512 703  0.2+  0.2-    090512 B15  0.3-  0.1-    090513 673  0.3+  0.3-
    090512 703  0.2-  0.1-    090512 595  0.3+  0.3+    090513 670  0.1+  0.2-
    090512 703  0.3-  0.0     090512 595  0.0   0.2+    090513 854  1.7+  1.1-
    090512 703  0.1-  0.2-    090512 595  0.3+  0.0     090513 854  0.5+  1.1-
    090512 703  0.3-  0.2-    090512 J16  0.0   0.5+    090513 854  0.0   0.0
    090512 703  0.0   0.1-    090512 J16  0.1+  0.3+    090513 670  0.7-  0.0
    090512 703  0.0   0.0     090512 J16  0.1+  0.5+    090513 670  0.2-  0.0
    090512 703  0.1+  0.0     090512 J41  0.7+  0.9+    090513 H06  0.0   0.2-
    090512 703  0.1+  0.1-    090512 J41  0.5-  0.1+    090513 854  0.3+  1.1-
    090512 H06  0.2+  0.0     090512 J41  0.3-  0.2+    090513 854  0.3+  0.8-
    090512 H06  0.1+  0.2-    090512 118  0.2-  0.1+    090513 854  0.2+  1.3-
    090512 H06  0.3-  0.3-    090512 118  0.2-  0.1+    090513 H06  0.1-  0.0
    090512 703  0.2+  0.2+    090512 118  0.2-  0.1+    090513 670  0.0   0.4+
    090512 703  0.1-  0.5+    090512 118  0.2-  0.1+    090513 G56  0.1+  0.7+
    090512 703  0.6+  0.0     090512 118  0.0   0.0     090513 G56  0.4-  0.9+
    090512 703  0.1+  0.1-    090512 118  0.2-  0.1+    090513 G56  0.3-  0.4+
    090512 114 (0.5-  2.5+)   090512 118  0.2-  0.2+    090513 900  0.0   0.1+
    090512 114 (0.9-  2.9+)   090513 H06  0.3-  0.1-    090513 900  0.3-  0.3+
    090512 114 (1.0-  4.1+)   090513 H06  0.2-  0.3-    090513 900  0.1-  0.2+
    090512 114 (0.8-  4.0+)   090513 H06  0.3-  0.2-    090513 900  0.3-  0.1+
    
    Ephemeris:
    2009 JM2                 a,e,i = 2.38, 0.60, 17                  q = 0.9441
    Date    TT    R. A. (2000) Decl.     Delta      r     Elong.  Phase     V
    2009 05 09    14 10.05   +64 05.8    0.129    1.035    97.9    75.0    17.1
    2009 05 19    14 54.73   +22 30.4    0.112    1.095   136.2    39.8    15.9
    2009 05 29    15 12.61   -12 04.2    0.159    1.165   160.6    16.8    16.1
    2009 06 08    15 24.42   -27 43.9    0.241    1.241   156.9    18.7    17.2
    2009 06 18    15 35.12   -34 49.5    0.341    1.321   149.4    23.1    18.3
    2009 06 28    15 46.53   -38 19.6    0.453    1.404   142.7    26.1    19.1
    2009 07 08    15 59.33   -40 07.2    0.576    1.488   136.5    28.1    19.8
    2009 07 18    16 13.48   -41 00.8    0.709    1.572   130.5    29.4    20.4
    2009 07 28    16 28.87   -41 23.4    0.852    1.656   124.7    30.3    21.0
    2009 08 07    16 45.33   -41 27.3    1.004    1.739   119.0    30.7    21.4
    2009 08 17    17 02.60   -41 18.8    1.165    1.820   113.2    30.7    21.9
    
    Sonia Keys                   (C) Copyright 2009 MPC           M.P.E.C. 2009-J54
    

    Read MPEC 2009-J53 Read MPEC 2009-J55


    MPEC number:

    Enter an MPEC number in one of the following forms:

    • 1997-B01 (the full form)
    • J97B01 (the packed version of the full form)
    • B01 (the abbreviated form)